Temp
70 71 71 72 72 73 75 76 77 78 78 78 78 78 79 78 77 76 76 75 75 74 74 74 75 74 74 75 75 74 75 75 75 75 75 75 76 76 75 75 76 75 75 75 75 76 77 77 77 77 77 77 77 77 76 76 76 78 76 77 76 76 76
69 70 71 71 71 70 70 72 76 77 78 78 78 78 79 78 77 77 76 76 76 75 75 75 75 75 75 75 75 74 74 74 75 77 76 76 77 76 77 76 76 76 75 76 76 76 77 77 77 77 77 77 77 77 77 76 77 77 77 76 76 75 75
68 69 70 71 71 70 69 70 71 74 76 77 78 78 78 78 78 77 77 76 75 75 76 75 76 76 75 75 75 75 75 75 75 75 75 76 75 77 77 77 77 77 77 77 76 77 78 77 77 77 77 77 78 77 77 77 77 77 77 76 76 76 74
68 69 70 71 72 71 71 71 72 72 75 77 78 79 78 77 79 78 78 78 77 76 75 75 76 76 76 75 75 75 75 75 75 76 76 76 76 76 76 76 76 77 77 77 78 79 80 78 77 77 79 77 77 77 77 77 77 77 77 76 76 76 76
68 69 69 70 70 70 70 72 72 72 72 73 74 75 77 78 79 78 77 78 79 77 77 77 78 78 77 77 78 77 76 76 75 75 75 76 76 76 77 77 77 77 77 78 77 78 77 77 77 77 77 77 77 77 77 77 77 77 77 76 76 75 75
68 68 68 70 70 70 71 72 72 72 72 72 73 73 76 78 78 78 77 77 77 78 77 76 77 77 77 77 78 78 77 76 76 75 75 75 76 77 77 77 77 77 78 78 78 78 77 77 78 77 77 77 77 77 77 77 77 77 76 76 76 76 76
67 67 68 69 70 71 72 72 72 72 72 73 74 74 74 75 76 78 77 76 77 76 77 77 77 76 76 77 77 78 77 77 76 76 76 76 76 77 77 77 78 78 79 77 78 78 77 77 77 78 78 78 77 78 77 76 76 77 76 76 76 75 75
67 67 69 70 71 71 71 72 72 72 73 73 73 73 73 73 74 76 76 76 76 76 77 76 77 77 76 76 77 78 78 78 77 77 76 77 76 76 76 77 77 77 77 78 78 78 79 77 78 78 78 78 77 77 77 77 76 76 76 76 75 75 77
67 68 70 71 71 71 71 71 71 72 72 72 72 72 72 72 72 72 73 73 73 75 75 76 77 78 77 76 76 76 77 78 78 77 77 77 77 77 78 78 77 77 77 78 79 78 79 79 78 77 77 77 77 77 77 76 76 76 76 76 76 76 76
66 66 67 69 70 71 71 71 71 71 70 70 70 71 71 71 72 73 73 74 75 75 75 75 74 75 75 75 75 74 75 76 77 78 78 78 78 78 78 79 78 78 78 79 79 79 78 78 79 77 76 77 77 76 77 76 76 76 76 76 76 76 76
65 65 66 67 67 69 70 70 68 68 69 69 70 70 71 71 72 72 72 73 74 74 74 74 74 73 73 73 72 72 73 74 75 77 78 79 80 80 80 80 80 78 79 79 79 80 79 78 77 77 76 77 77 76 76 76 76 76 76 76 76 76 76
66 66 65 67 67 67 66 67 68 69 69 70 70 70 70 71 71 71 72 72 73 73 73 73 74 73 73 73 72 72 72 73 74 76 78 79 80 81 81 81 80 80 79 79 80 80 80 79 78 78 77 77 77 77 77 76 76 76 76 77 76 75 76
67 66 65 65 65 66 66 66 66 68 68 69 70 70 70 70 70 71 72 72 72 72 73 73 73 73 73 73 72 72 72 72 73 74 75 76 78 81 81 81 81 81 81 81 81 81 80 80 79 78 78 78 78 78 77 77 76 76 75 76 76 76 76
68 67 66 66 66 65 65 65 66 67 68 69 70 71 71 71 71 72 72 72 72 73 73 73 73 73 73 73 72 71 71 72 73 73 73 73 73 75 78 81 80 80 80 80 80 81 81 81 80 80 79 79 78 79 79 77 77 76 76 76 76 76 76
65 66 65 65 65 65 66 66 66 67 68 69 71 71 71 71 71 71 71 71 71 72 71 72 73 73 72 72 72 72 72 72 72 73 73 74 73 73 74 76 77 78 78 78 80 82 82 82 82 81 79 79 78 78 79 78 78 78 77 76 75 76 76
65 65 65 65 65 66 66 67 67 68 69 69 69 69 71 71 71 71 70 70 71 71 71 73 73 72 72 71 71 71 72 72 72 72 73 73 73 73 73 74 74 76 75 76 78 79 80 80 80 81 80 79 78 78 79 78 79 78 75 76 78 76 77
65 65 65 66 66 66 67 67 67 67 67 68 69 69 69 70 71 71 71 71 70 70 71 71 71 72 72 72 72 72 72 72 72 72 71 72 72 72 73 73 74 74 74 75 74 75 75 77 79 80 81 80 80 79 79 80 81 76 70 69 72 78 76
64 64 66 66 67 67 67 67 67 67 67 68 69 70 69 69 69 70 69 70 69 69 70 70 70 69 69 70 71 71 72 73 73 73 72 73 73 72 72 73 73 72 72 72 74 74 74 75 75 76 79 80 80 80 81 81 78 71 69 69 68 72 78
63 64 66 66 66 65 66 66 67 67 68 68 68 68 69 70 68 67 68 68 70 70 69 69 69 69 69 69 70 70 71 71 72 72 72 72 72 72 72 72 71 71 72 72 72 74 73 72 73 73 74 76 76 79 81 81 75 70 69 68 67 67 72
64 64 66 67 67 65 64 64 64 66 67 67 69 71 70 70 69 68 68 69 69 69 68 68 68 68 68 68 69 70 70 70 71 71 71 72 72 72 72 72 71 71 72 72 72 72 72 72 72 72 72 73 73 74 75 77 77 69 67 66 66 66 68
63 64 63 62 63 63 62 62 63 64 64 66 68 68 69 68 68 67 67 67 67 68 67 68 67 67 67 68 68 68 69 70 70 70 71 71 72 71 71 71 70 71 71 72 72 71 71 71 71 72 73 73 74 74 76 79 73 68 64 63 63 64 66
64 64 63 63 62 61 61 62 62 63 63 65 65 65 65 65 66 66 65 65 65 65 65 66 66 67 67 67 68 68 68 69 69 69 70 70 71 71 71 71 71 71 71 72 72 72 72 72 72 72 72 73 73 73 74 77 70 67 65 62 61 63 69
65 64 63 62 63 61 61 62 62 63 64 63 64 64 63 63 65 65 64 64 63 63 63 64 65 65 66 67 68 68 68 68 68 68 68 68 70 70 70 70 71 71 72 71 71 71 72 72 73 73 73 73 73 72 72 74 70 65 63 62 60 63 68
63 63 63 63 63 62 62 62 63 64 63 63 62 61 62 64 64 63 63 62 62 63 62 62 62 64 65 65 65 66 67 67 67 66 67 66 67 67 69 70 71 70 72 70 70 70 71 72 73 72 73 73 73 73 73 74 73 66 61 60 60 65 70
64 63 63 63 63 62 62 61 63 63 63 62 61 61 62 62 62 62 61 61 61 61 61 61 62 62 62 63 63 64 65 66 66 66 66 65 66 66 67 67 69 71 71 70 70 70 71 73 73 73 74 75 76 78 77 75 73 66 61 57 57 62 69
61 61 61 62 62 61 61 62 63 61 61 60 59 61 61 62 62 62 61 59 60 60 60 60 60 61 61 62 63 63 65 64 65 66 66 65 66 66 66 68 68 68 70 70 70 71 71 72 72 73 74 76 77 77 76 75 74 71 60 58 57 57 65
62 62 61 62 62 63 60 60 60 59 59 58 59 61 61 61 60 59 59 59 58 59 59 60 60 61 61 62 63 64 64 64 63 64 65 65 65 66 66 65 66 67 68 69 70 70 70 71 71 72 73 74 75 75 74 75 74 72 61 59 59 58 61
61 61 62 63 63 62 59 59 59 59 59 59 60 61 60 60 59 58 57 57 58 57 59 59 60 60 61 62 62 63 64 63 64 64 66 65 65 63 64 65 66 68 69 70 69 68 68 69 69 70 70 72 72 73 72 74 75 72 66 59 56 56 56
58 58 58 59 59 61 61 58 57 58 58 59 59 59 59 59 59 58 57 57 57 58 58 60 60 60 60 61 61 62 63 63 64 64 65 65 64 62 63 64 65 66 67 67 66 66 66 66 67 67 67 68 68 69 71 72 73 69 71 63 56 53 56
57 57 58 60 60 59 59 57 57 57 57 58 57 57 57 57 58 59 58 56 57 57 59 59 59 59 60 61 61 61 62 63 63 62 61 63 63 63 62 63 63 64 64 64 63 63 63 64 65 65 65 65 65 67 68 70 70 71 68 67 59 55 54
57 57 58 58 58 59 58 57 56 56 56 55 56 55 55 55 56 57 56 56 58 58 57 58 59 60 59 59 59 60 60 61 61 62 61 61 62 63 63 62 62 62 62 62 62 61 61 62 64 63 63 64 64 65 67 67 69 70 69 67 64 59 57
55 56 56 56 56 58 57 56 56 56 55 55 55 55 56 54 54 55 54 56 57 57 57 58 59 59 59 58 59 59 59 60 61 62 63 62 62 63 62 62 62 63 62 61 60 60 61 61 62 62 62 62 62 63 64 66 65 67 68 70 69 66 60
54 55 55 55 56 57 55 55 54 55 54 53 53 53 55 53 55 55 54 56 56 57 56 57 58 59 58 56 57 58 58 59 61 62 62 61 60 61 63 63 61 61 62 60 58 59 61 62 62 61 60 60 60 61 62 62 63 64 64 63 63 63 63
52 52 53 54 55 54 53 52 52 53 53 53 52 53 54 54 55 55 55 56 56 55 55 57 58 58 55 56 56 58 59 59 66 63 60 61 61 60 60 61 62 61 60 59 59 59 59 59 59 59 59 58 59 59 60 61 61 62 61 61 59 58 59
53 53 53 53 54 55 53 53 53 53 54 52 52 52 54 54 55 55 55 56 56 55 56 57 58 57 55 56 56 56 61 61 59 59 59 59 60 60 58 59 61 61 59 60 60 60 59 58 58 60 57 57 57 57 59 60 60 63 58 55 51 50 51
53 53 53 53 54 52 54 54 53 53 53 51 51 53 54 54 55 55 56 56 56 56 56 57 57 56 55 56 56 57 58 60 58 58 59 58 58 59 61 65 55 56 59 60 62 56 53 54 59 59 58 56 58 59 58 58 61 55 46 44 43 43 43
52 52 52 51 51 51 52 53 55 54 53 51 53 54 54 54 54 54 55 55 55 55 55 54 56 55 54 56 56 58 61 59 58 58 58 58 57 57 58 58 61 52 51 54 57 54 48 47 48 49 52 57 57 58 57 55 50 44 43 43 43 42 42
54 54 53 51 52 53 53 53 53 53 53 51 53 53 53 54 53 53 54 54 54 54 54 54 54 53 53 54 56 59 60 57 58 59 59 57 56 57 58 56 55 58 53 50 50 50 48 47 48 47 47 48 51 56 57 54 46 44 44 44 44 44 43
MSLP
1016.27 1015.95 1015.83 1015.35 1015.51 1015.63 1015.67 1015.67 1015.59 1015.87 1016.11 1016.39 1016.59 1016.75 1016.95 1017.11 1017.23 1017.43 1017.79 1017.99 1018.23 1018.51 1018.59 1018.67 1018.87 1019.07 1019.27 1019.39 1019.39 1019.43 1019.47 1019.55 1019.67 1019.87 1020.03 1020.11 1020.15 1020.35 1020.59 1020.67 1020.87 1020.99 1021.03 1021.23 1021.23 1021.19 1021.03 1020.99 1021.15 1021.23 1021.27 1021.31 1021.39 1021.43 1021.47 1021.51 1021.59 1021.63 1021.67 1021.75 1021.83 1021.95 1022.03
1016.79 1016.23 1016.15 1016.23 1015.99 1015.91 1015.91 1015.71 1015.75 1015.99 1016.11 1016.15 1016.31 1016.47 1016.63 1016.83 1017.03 1017.31 1017.47 1017.63 1017.87 1018.15 1018.39 1018.55 1018.75 1018.95 1019.11 1019.27 1019.27 1019.35 1019.47 1019.51 1019.55 1019.63 1019.79 1019.95 1019.99 1020.07 1020.11 1020.35 1020.51 1020.71 1020.79 1020.83 1020.87 1020.87 1020.87 1020.91 1020.99 1021.19 1021.27 1021.23 1021.31 1021.27 1021.39 1021.47 1021.51 1021.59 1021.67 1021.71 1021.83 1021.91 1021.95
1016.55 1016.27 1016.11 1016.15 1016.11 1015.91 1015.91 1015.99 1015.99 1015.95 1016.11 1016.31 1016.31 1016.43 1016.51 1016.59 1016.63 1016.83 1017.15 1017.59 1017.91 1018.11 1018.27 1018.47 1018.59 1018.75 1018.87 1019.03 1019.23 1019.27 1019.27 1019.39 1019.55 1019.63 1019.83 1019.99 1020.03 1020.03 1019.99 1020.07 1020.23 1020.39 1020.47 1020.51 1020.63 1020.75 1020.71 1020.87 1020.87 1020.95 1021.07 1021.19 1021.19 1021.23 1021.27 1021.35 1021.39 1021.43 1021.47 1021.55 1021.75 1021.91 1021.99
1016.51 1016.31 1016.27 1016.15 1016.11 1016.03 1015.91 1015.75 1015.83 1015.83 1015.75 1015.83 1016.03 1016.15 1016.31 1016.39 1016.31 1016.47 1016.79 1017.15 1017.67 1018.07 1018.35 1018.31 1018.35 1018.55 1018.63 1018.83 1019.03 1019.15 1019.23 1019.23 1019.31 1019.47 1019.59 1019.63 1019.79 1019.83 1019.99 1020.07 1020.15 1020.19 1020.43 1020.51 1020.43 1020.51 1020.55 1020.67 1020.87 1020.91 1020.95 1021.11 1021.11 1021.11 1021.19 1021.23 1021.23 1021.31 1021.35 1021.51 1021.67 1021.75 1021.83
1016.47 1016.31 1016.23 1016.27 1016.11 1015.95 1016.11 1015.91 1015.79 1015.83 1015.87 1015.79 1015.83 1015.87 1015.99 1016.07 1016.27 1016.63 1016.99 1017.15 1017.27 1017.59 1017.55 1017.67 1017.87 1018.03 1018.23 1018.39 1018.67 1018.83 1018.91 1019.03 1019.19 1019.27 1019.35 1019.39 1019.47 1019.63 1019.91 1020.03 1020.07 1020.19 1020.15 1020.23 1020.31 1020.47 1020.55 1020.67 1020.79 1020.87 1020.95 1020.95 1021.03 1021.07 1021.11 1021.11 1021.19 1021.19 1021.31 1021.43 1021.63 1021.67 1021.83
1016.51 1016.39 1016.27 1016.23 1016.19 1016.07 1015.99 1015.91 1015.83 1015.87 1016.03 1016.11 1015.99 1015.91 1015.87 1016.07 1016.35 1016.71 1016.91 1017.19 1017.39 1017.47 1017.75 1018.07 1018.23 1018.15 1018.35 1018.31 1018.39 1018.51 1018.59 1018.71 1018.79 1018.95 1019.15 1019.23 1019.39 1019.59 1019.75 1019.79 1019.91 1019.99 1020.15 1020.15 1020.15 1020.27 1020.39 1020.55 1020.67 1020.75 1020.91 1020.91 1020.95 1021.03 1021.03 1021.15 1021.15 1021.15 1021.23 1021.39 1021.51 1021.59 1021.75
1016.63 1016.47 1016.31 1016.11 1016.03 1015.99 1015.83 1015.79 1015.87 1015.87 1015.95 1015.91 1015.87 1015.91 1016.03 1016.11 1016.35 1016.63 1016.91 1017.19 1017.31 1017.67 1017.87 1018.03 1018.11 1018.31 1018.35 1018.31 1018.31 1018.35 1018.51 1018.55 1018.63 1018.79 1018.83 1019.07 1019.15 1019.35 1019.47 1019.59 1019.67 1019.79 1019.83 1019.91 1020.15 1020.15 1020.35 1020.47 1020.51 1020.55 1020.63 1020.75 1020.87 1020.95 1020.99 1021.11 1021.19 1021.11 1021.23 1021.35 1021.47 1021.51 1021.55
1016.83 1016.63 1016.19 1015.95 1015.91 1015.83 1015.79 1015.79 1015.91 1016.07 1016.03 1015.91 1015.99 1016.15 1016.35 1016.55 1016.63 1016.83 1017.23 1017.43 1017.51 1017.55 1017.67 1017.83 1017.99 1017.95 1017.99 1018.07 1018.11 1018.27 1018.35 1018.39 1018.39 1018.51 1018.71 1018.91 1019.03 1019.23 1019.31 1019.43 1019.55 1019.59 1019.75 1020.03 1019.95 1020.03 1020.23 1020.31 1020.31 1020.35 1020.47 1020.59 1020.71 1020.79 1020.83 1020.91 1020.99 1021.03 1021.15 1021.35 1021.47 1021.51 1021.47
1016.95 1016.63 1016.07 1015.87 1015.91 1015.95 1016.03 1016.03 1016.11 1016.23 1016.35 1016.35 1016.43 1016.51 1016.55 1016.71 1016.79 1016.99 1017.19 1017.35 1017.63 1017.87 1017.83 1017.67 1017.63 1017.51 1017.67 1017.99 1018.23 1018.39 1018.35 1018.35 1018.47 1018.55 1018.67 1018.83 1018.91 1019.11 1019.15 1019.23 1019.31 1019.39 1019.71 1019.87 1019.91 1019.87 1019.99 1020.11 1020.15 1020.23 1020.31 1020.47 1020.55 1020.63 1020.75 1020.75 1020.87 1020.91 1021.07 1021.23 1021.31 1021.43 1021.47
1017.39 1017.15 1016.55 1016.19 1016.07 1016.15 1016.23 1016.31 1016.43 1016.55 1016.67 1016.71 1016.71 1016.67 1016.63 1016.59 1016.47 1016.43 1016.51 1016.67 1016.83 1017.23 1017.51 1017.63 1017.67 1017.71 1017.91 1018.19 1018.35 1018.35 1018.47 1018.63 1018.67 1018.79 1018.87 1018.95 1018.83 1018.95 1018.95 1019.03 1019.15 1019.23 1019.47 1019.59 1019.71 1019.91 1019.87 1019.91 1020.03 1020.15 1020.31 1020.43 1020.51 1020.55 1020.63 1020.67 1020.75 1020.87 1020.95 1021.07 1021.15 1021.27 1021.35
1017.75 1017.39 1017.23 1016.79 1016.47 1016.47 1016.59 1016.83 1016.99 1016.99 1016.63 1016.39 1016.43 1016.59 1016.91 1017.07 1017.15 1017.47 1017.75 1017.75 1017.83 1017.91 1017.67 1017.51 1017.47 1017.71 1017.95 1018.07 1018.27 1018.35 1018.47 1018.63 1018.67 1018.83 1018.83 1018.83 1018.71 1018.75 1018.75 1018.87 1018.99 1019.11 1019.31 1019.47 1019.67 1019.67 1019.83 1019.91 1019.95 1020.15 1020.31 1020.43 1020.47 1020.51 1020.59 1020.59 1020.63 1020.79 1020.91 1020.91 1020.91 1021.07 1021.19
1017.59 1017.43 1017.47 1017.11 1016.95 1017.03 1017.23 1017.19 1017.15 1017.03 1016.87 1016.59 1016.47 1016.47 1016.79 1017.15 1017.47 1017.71 1017.99 1017.87 1017.79 1017.99 1017.79 1017.39 1017.19 1017.47 1017.63 1017.67 1018.03 1018.39 1018.47 1018.31 1018.23 1018.27 1018.35 1018.51 1018.59 1018.63 1018.63 1018.71 1018.83 1018.99 1019.11 1019.27 1019.51 1019.55 1019.63 1019.79 1019.91 1019.99 1020.19 1020.19 1020.19 1020.23 1020.31 1020.35 1020.43 1020.55 1020.67 1020.71 1020.79 1020.87 1020.99
1017.43 1017.55 1017.55 1017.47 1017.35 1017.31 1017.23 1017.47 1017.59 1017.47 1017.31 1016.95 1016.67 1016.59 1016.83 1017.19 1017.83 1018.15 1018.15 1018.07 1018.07 1018.19 1017.75 1017.47 1017.67 1017.99 1017.99 1017.91 1018.19 1018.55 1018.75 1018.51 1018.11 1017.99 1018.11 1018.31 1018.43 1018.43 1018.51 1018.59 1018.67 1018.79 1018.99 1018.99 1019.23 1019.39 1019.55 1019.55 1019.67 1019.63 1019.75 1019.83 1019.91 1019.99 1020.07 1020.15 1020.23 1020.35 1020.43 1020.51 1020.59 1020.67 1020.79
1017.35 1017.47 1017.51 1017.43 1017.51 1017.67 1017.83 1017.95 1018.03 1017.99 1017.79 1017.15 1016.99 1016.95 1017.07 1017.27 1017.79 1017.99 1017.95 1017.91 1017.71 1017.51 1017.39 1017.31 1017.59 1017.79 1017.79 1017.87 1018.23 1018.51 1018.63 1018.47 1018.23 1018.31 1018.39 1018.51 1018.63 1018.59 1018.51 1018.47 1018.51 1018.63 1018.63 1018.79 1019.11 1019.23 1019.23 1019.31 1019.39 1019.35 1019.39 1019.47 1019.59 1019.55 1019.63 1019.87 1020.03 1020.11 1020.19 1020.27 1020.39 1020.51 1020.59
1017.79 1017.83 1017.75 1017.79 1017.79 1017.83 1017.83 1017.91 1018.03 1017.99 1017.99 1017.71 1017.43 1017.51 1017.59 1017.63 1017.67 1017.63 1017.63 1017.63 1017.63 1017.63 1017.63 1017.59 1017.83 1017.99 1017.83 1017.75 1018.15 1018.55 1018.55 1018.39 1018.35 1018.39 1018.43 1018.47 1018.59 1018.79 1018.79 1018.67 1018.63 1018.51 1018.55 1018.71 1018.87 1018.87 1018.91 1018.91 1018.99 1019.15 1019.31 1019.27 1019.31 1019.35 1019.43 1019.67 1019.79 1019.79 1019.91 1020.11 1020.23 1020.27 1020.43
1018.15 1018.15 1018.03 1017.99 1017.87 1017.95 1017.87 1017.87 1017.91 1017.95 1017.87 1017.87 1017.79 1017.75 1017.71 1017.63 1017.71 1017.79 1017.87 1017.91 1017.87 1017.87 1017.71 1017.43 1017.59 1017.79 1017.95 1018.03 1018.27 1018.75 1018.87 1018.51 1018.39 1018.47 1018.55 1018.55 1018.63 1018.79 1019.07 1019.03 1018.87 1018.99 1018.87 1018.71 1018.75 1018.75 1018.71 1018.75 1018.79 1018.91 1019.07 1019.23 1019.23 1019.23 1019.35 1019.43 1019.39 1019.35 1019.43 1019.55 1019.71 1019.95 1020.03
1018.27 1018.43 1018.31 1018.11 1017.99 1018.07 1018.03 1018.03 1018.07 1018.03 1018.03 1018.07 1018.03 1017.91 1017.83 1017.87 1017.83 1017.79 1017.91 1018.03 1018.15 1018.23 1017.95 1017.67 1017.79 1017.95 1018.15 1018.39 1018.55 1018.83 1018.91 1018.71 1018.63 1018.71 1018.87 1018.91 1018.95 1019.11 1019.35 1019.27 1019.03 1019.11 1019.51 1019.39 1018.95 1018.83 1018.75 1018.67 1018.75 1018.71 1018.67 1018.75 1018.87 1019.03 1019.11 1019.07 1018.91 1018.87 1019.03 1019.23 1019.31 1019.47 1019.71
1018.51 1018.55 1018.47 1018.35 1018.31 1018.31 1018.27 1018.27 1018.27 1018.27 1018.31 1018.23 1018.11 1018.03 1018.07 1018.11 1018.15 1018.23 1018.47 1018.47 1018.59 1018.79 1018.43 1018.39 1018.51 1018.79 1018.87 1018.87 1018.91 1018.83 1018.67 1018.47 1018.43 1018.67 1018.79 1018.91 1019.07 1019.15 1019.39 1019.43 1019.31 1019.43 1019.95 1020.51 1019.91 1019.07 1018.79 1018.67 1018.51 1018.43 1018.35 1018.35 1018.39 1018.55 1018.59 1018.59 1018.39 1018.51 1018.71 1018.87 1018.99 1019.11 1019.23
1018.75 1018.67 1018.67 1018.51 1018.55 1018.63 1018.71 1018.63 1018.55 1018.51 1018.47 1018.39 1018.35 1018.35 1018.35 1018.31 1018.55 1018.79 1018.87 1018.95 1018.99 1019.03 1018.75 1018.95 1019.19 1019.19 1019.11 1018.95 1018.91 1018.87 1018.63 1018.47 1018.51 1018.63 1018.75 1018.83 1018.95 1019.03 1019.19 1019.31 1019.27 1019.47 1020.19 1021.07 1020.99 1019.75 1019.07 1018.83 1018.63 1018.47 1018.27 1018.27 1018.35 1018.39 1018.19 1018.15 1017.95 1018.15 1018.31 1018.47 1018.59 1018.75 1018.99
1018.79 1018.75 1018.67 1018.59 1018.71 1018.87 1018.99 1018.91 1018.87 1018.79 1018.71 1018.59 1018.47 1018.47 1018.47 1018.51 1018.83 1018.99 1019.03 1019.03 1019.03 1019.15 1019.39 1019.43 1019.47 1019.35 1019.31 1019.23 1019.11 1018.79 1018.83 1018.79 1018.75 1018.87 1018.99 1018.95 1018.83 1018.83 1019.03 1019.39 1019.99 1020.39 1020.63 1020.63 1020.35 1020.03 1019.35 1018.79 1018.59 1018.47 1018.39 1018.35 1018.31 1018.27 1018.19 1018.15 1017.91 1018.03 1018.11 1018.15 1018.19 1018.31 1018.67
1018.91 1018.95 1019.03 1018.99 1019.15 1019.27 1019.35 1019.27 1019.15 1019.03 1018.95 1018.95 1018.95 1018.91 1018.83 1019.03 1019.07 1019.23 1019.31 1019.31 1019.47 1019.55 1019.59 1019.59 1019.59 1019.63 1019.51 1019.35 1019.03 1018.79 1018.87 1018.91 1018.99 1019.03 1019.07 1019.15 1019.19 1019.11 1019.11 1019.43 1020.11 1020.55 1020.59 1020.31 1019.87 1019.63 1019.79 1019.59 1018.75 1018.51 1018.43 1018.35 1018.27 1018.31 1018.27 1018.11 1017.99 1018.03 1018.07 1018.11 1018.11 1018.15 1018.47
1018.91 1018.99 1019.19 1019.27 1019.39 1019.47 1019.43 1019.39 1019.35 1019.27 1019.31 1019.19 1019.11 1019.15 1019.15 1019.27 1019.27 1019.35 1019.59 1019.55 1019.71 1019.79 1019.83 1019.83 1019.87 1019.91 1019.79 1019.71 1019.43 1019.07 1019.03 1019.15 1019.27 1019.39 1019.47 1019.71 1019.83 1019.91 1019.83 1019.67 1019.79 1020.31 1020.47 1020.27 1019.71 1019.31 1019.35 1019.47 1018.79 1018.43 1018.43 1018.35 1018.39 1018.47 1018.51 1018.19 1017.99 1017.95 1017.91 1017.87 1017.91 1018.07 1018.47
1018.71 1018.95 1019.11 1019.39 1019.39 1019.59 1019.59 1019.51 1019.51 1019.51 1019.43 1019.51 1019.51 1019.51 1019.59 1019.47 1019.31 1019.35 1019.51 1019.67 1019.87 1019.99 1020.11 1020.07 1020.19 1020.27 1020.27 1020.27 1020.11 1019.95 1019.75 1019.67 1019.79 1019.87 1019.99 1020.07 1020.19 1020.23 1020.19 1020.11 1019.95 1019.83 1019.95 1020.19 1020.03 1019.91 1019.79 1019.43 1018.75 1018.15 1018.23 1018.35 1018.39 1018.55 1018.59 1018.39 1018.03 1017.87 1017.75 1017.75 1017.83 1018.07 1018.23
1018.99 1019.19 1019.35 1019.43 1019.47 1019.63 1019.71 1019.71 1019.67 1019.63 1019.67 1019.87 1020.03 1020.07 1019.91 1019.75 1019.63 1019.63 1019.83 1020.11 1020.27 1020.39 1020.51 1020.59 1020.67 1020.59 1020.47 1020.51 1020.47 1020.39 1020.27 1020.15 1020.15 1020.19 1020.19 1020.19 1020.27 1020.23 1020.11 1019.87 1019.71 1019.67 1019.71 1020.27 1020.31 1020.03 1019.55 1018.95 1018.39 1018.07 1018.03 1018.23 1018.35 1018.31 1018.47 1018.35 1017.95 1017.83 1017.79 1017.75 1017.75 1017.87 1017.95
1019.15 1019.35 1019.51 1019.59 1019.63 1019.83 1019.91 1019.99 1019.91 1019.95 1019.95 1020.07 1020.43 1020.51 1020.31 1020.19 1020.15 1020.23 1020.47 1020.59 1020.63 1020.71 1020.95 1021.15 1021.15 1021.03 1020.91 1020.71 1020.55 1020.47 1020.43 1020.39 1020.39 1020.43 1020.43 1020.39 1020.35 1020.23 1020.07 1019.95 1019.87 1019.71 1019.83 1020.03 1019.95 1019.47 1018.83 1018.31 1018.19 1018.15 1018.07 1018.07 1018.15 1018.07 1018.19 1018.23 1018.07 1017.99 1018.03 1017.99 1018.07 1018.19 1018.19
1019.39 1019.59 1019.75 1019.75 1019.91 1019.95 1020.07 1020.03 1019.95 1020.19 1020.47 1020.67 1020.91 1020.75 1020.59 1020.55 1020.59 1020.87 1021.03 1021.07 1020.95 1020.99 1021.27 1021.39 1021.39 1021.27 1021.03 1020.79 1020.63 1020.51 1020.47 1020.43 1020.47 1020.51 1020.55 1020.51 1020.39 1020.23 1020.11 1019.95 1019.83 1019.79 1019.79 1019.67 1019.39 1019.07 1018.67 1018.47 1018.43 1018.51 1018.47 1018.23 1018.23 1018.31 1018.35 1018.35 1018.23 1018.07 1018.07 1018.07 1018.03 1018.07 1018.07
1019.35 1019.47 1019.75 1019.91 1020.11 1020.11 1020.31 1020.51 1020.63 1020.91 1021.03 1021.07 1020.99 1020.95 1020.99 1020.99 1021.03 1021.39 1021.51 1021.47 1021.35 1021.51 1021.51 1021.47 1021.35 1021.27 1021.19 1021.03 1020.87 1020.83 1020.75 1020.63 1020.51 1020.55 1020.55 1020.51 1020.51 1020.35 1020.15 1020.03 1019.91 1019.71 1019.51 1019.43 1019.19 1019.07 1018.99 1018.91 1018.83 1018.79 1018.79 1018.63 1018.55 1018.51 1018.59 1018.51 1018.59 1018.43 1018.35 1018.27 1018.15 1018.15 1018.23
1019.63 1019.83 1019.91 1019.99 1020.11 1020.23 1020.59 1020.79 1020.95 1021.07 1021.15 1021.19 1021.15 1021.11 1021.19 1021.27 1021.55 1021.75 1021.75 1021.71 1021.79 1021.75 1021.59 1021.47 1021.43 1021.35 1021.31 1021.23 1021.23 1021.15 1021.07 1020.95 1020.79 1020.67 1020.71 1020.63 1020.55 1020.51 1020.43 1020.23 1019.99 1019.75 1019.59 1019.47 1019.43 1019.43 1019.39 1019.27 1019.15 1019.11 1019.11 1018.95 1018.83 1018.79 1018.75 1018.63 1018.67 1018.75 1018.71 1018.67 1018.55 1018.35 1018.35
1019.83 1020.07 1020.23 1020.35 1020.47 1020.51 1020.59 1021.03 1021.27 1021.39 1021.47 1021.39 1021.31 1021.27 1021.27 1021.27 1021.55 1021.75 1021.71 1021.79 1021.83 1021.71 1021.59 1021.47 1021.39 1021.39 1021.39 1021.39 1021.39 1021.39 1021.31 1021.15 1021.03 1020.95 1020.83 1020.75 1020.75 1020.71 1020.67 1020.47 1020.27 1020.15 1019.99 1019.91 1019.87 1019.87 1019.83 1019.71 1019.55 1019.47 1019.43 1019.31 1019.19 1019.03 1018.91 1018.83 1018.71 1018.95 1018.95 1018.83 1018.71 1018.59 1018.51
1020.03 1020.15 1020.31 1020.47 1020.59 1020.75 1020.79 1021.15 1021.35 1021.47 1021.51 1021.51 1021.47 1021.43 1021.47 1021.55 1021.71 1021.79 1021.83 1021.87 1021.71 1021.55 1021.43 1021.39 1021.35 1021.31 1021.35 1021.39 1021.43 1021.39 1021.35 1021.23 1021.11 1020.99 1020.95 1020.75 1020.75 1020.71 1020.71 1020.63 1020.51 1020.43 1020.39 1020.35 1020.35 1020.39 1020.31 1020.11 1019.87 1019.79 1019.75 1019.71 1019.59 1019.31 1019.15 1018.99 1018.95 1018.83 1018.83 1018.75 1018.55 1018.51 1018.55
1020.11 1020.23 1020.43 1020.63 1020.95 1021.07 1021.19 1021.39 1021.63 1021.71 1021.75 1021.83 1021.95 1022.03 1022.07 1022.07 1022.11 1022.15 1022.15 1022.07 1021.83 1021.67 1021.55 1021.39 1021.31 1021.31 1021.35 1021.43 1021.43 1021.39 1021.35 1021.23 1021.11 1020.95 1020.87 1020.71 1020.55 1020.63 1020.71 1020.71 1020.59 1020.59 1020.55 1020.51 1020.51 1020.51 1020.51 1020.43 1020.23 1020.23 1020.15 1019.99 1019.91 1019.71 1019.43 1019.19 1019.03 1018.87 1018.63 1018.55 1018.47 1018.47 1018.43
1020.51 1020.63 1020.75 1020.91 1021.15 1021.23 1021.35 1021.51 1021.59 1021.67 1021.95 1022.23 1022.27 1022.31 1022.39 1022.43 1022.35 1022.35 1022.39 1022.19 1022.03 1021.87 1021.75 1021.59 1021.47 1021.39 1021.43 1021.43 1021.39 1021.35 1021.31 1021.23 1021.11 1020.91 1020.75 1020.71 1020.55 1020.47 1020.59 1020.63 1020.63 1020.67 1020.67 1020.63 1020.67 1020.67 1020.63 1020.55 1020.43 1020.39 1020.31 1020.27 1020.19 1019.99 1019.75 1019.47 1019.27 1019.07 1018.79 1018.67 1018.59 1018.51 1018.51
1020.55 1020.63 1020.67 1020.87 1021.07 1021.15 1021.31 1021.43 1021.63 1021.87 1022.11 1022.35 1022.51 1022.47 1022.43 1022.39 1022.43 1022.47 1022.39 1022.23 1022.15 1022.03 1021.91 1021.79 1021.71 1021.59 1021.47 1021.43 1021.47 1021.39 1021.31 1021.23 1021.11 1020.95 1020.91 1020.79 1020.71 1020.59 1020.51 1020.51 1020.51 1020.55 1020.59 1020.63 1020.71 1020.71 1020.67 1020.67 1020.63 1020.63 1020.55 1020.47 1020.31 1020.07 1019.87 1019.71 1019.47 1019.27 1019.11 1019.03 1019.03 1018.91 1018.67
1020.63 1020.87 1020.91 1020.87 1020.91 1020.95 1021.15 1021.31 1021.59 1021.87 1022.03 1022.23 1022.43 1022.39 1022.31 1022.31 1022.39 1022.39 1022.35 1022.27 1022.15 1022.07 1021.87 1021.75 1021.87 1021.83 1021.75 1021.63 1021.59 1021.47 1021.35 1021.27 1021.03 1020.99 1020.99 1020.83 1020.71 1020.63 1020.43 1020.39 1020.43 1020.55 1020.67 1020.71 1020.75 1020.75 1020.71 1020.67 1020.63 1020.67 1020.71 1020.63 1020.43 1020.23 1019.95 1019.83 1019.67 1019.43 1019.35 1019.27 1019.35 1019.35 1019.19
1020.59 1020.63 1020.83 1020.87 1020.83 1020.75 1020.95 1021.27 1021.63 1021.83 1021.99 1022.19 1022.23 1022.19 1022.19 1022.35 1022.43 1022.47 1022.43 1022.43 1022.31 1022.19 1021.99 1021.99 1021.95 1021.83 1021.83 1021.79 1021.71 1021.55 1021.39 1021.27 1021.19 1021.11 1021.07 1020.91 1020.63 1020.47 1020.43 1020.47 1020.47 1020.59 1020.55 1020.43 1020.59 1020.63 1020.71 1020.75 1020.67 1020.63 1020.63 1020.59 1020.47 1020.39 1020.23 1020.03 1019.99 1019.71 1019.67 1019.87 1020.07 1020.11 1019.79
1020.39 1020.47 1020.55 1020.59 1020.59 1020.83 1021.07 1021.31 1021.51 1021.75 1021.95 1022.15 1022.19 1022.23 1022.31 1022.43 1022.51 1022.55 1022.55 1022.55 1022.51 1022.39 1022.35 1022.31 1022.11 1022.07 1022.11 1021.99 1021.87 1021.75 1021.51 1021.35 1021.19 1021.11 1021.03 1020.95 1020.79 1020.63 1020.39 1020.23 1020.43 1020.51 1020.59 1020.55 1020.59 1020.67 1020.63 1020.63 1020.55 1020.55 1020.55 1020.55 1020.43 1020.43 1020.51 1020.47 1020.15 1019.99 1020.07 1020.03 1019.87 1019.79 1019.91
1020.27 1020.43 1020.47 1020.47 1020.67 1020.95 1021.07 1021.27 1021.35 1021.55 1021.83 1022.07 1022.15 1022.23 1022.43 1022.55 1022.63 1022.63 1022.67 1022.67 1022.63 1022.59 1022.59 1022.55 1022.43 1022.43 1022.39 1022.27 1022.11 1021.83 1021.59 1021.47 1021.31 1021.15 1021.07 1020.95 1020.91 1020.87 1020.83 1020.67 1020.27 1020.19 1020.47 1020.59 1020.51 1020.51 1020.55 1020.63 1020.59 1020.55 1020.51 1020.51 1020.43 1020.35 1020.27 1020.23 1020.27 1020.31 1020.19 1019.95 1019.83 1019.71 1019.59
1019.95 1019.99 1020.11 1020.27 1020.35 1020.67 1020.91 1021.19 1021.39 1021.55 1021.83 1021.99 1022.07 1022.27 1022.43 1022.55 1022.63 1022.71 1022.71 1022.71 1022.71 1022.67 1022.63 1022.63 1022.67 1022.75 1022.71 1022.55 1022.15 1021.87 1021.67 1021.55 1021.47 1021.31 1021.19 1020.99 1020.87 1020.83 1020.83 1020.79 1020.79 1020.55 1020.19 1020.15 1020.23 1020.23 1020.23 1020.23 1020.23 1020.23 1020.19 1020.27 1020.55 1020.27 1020.03 1020.07 1020.23 1020.03 1019.75 1019.67 1019.51 1019.35 1019.27
Wind_Speed
5 4 2 5 6 6 9 11 13 14 13 13 13 13 12 11 11 10 10 11 11 9 8 7 7 6 6 6 5 4 4 5 4 5 5 6 6 6 6 5 6 6 5 6 6 6 6 5 5 5 5 5 5 4 4 3 3 3 3 3 2 3 3
4 4 3 1 6 5 2 4 7 8 10 12 12 13 12 12 11 11 11 12 12 12 10 9 8 7 7 6 5 5 5 4 4 4 4 4 4 5 6 6 7 6 6 6 5 5 4 5 6 6 6 5 6 5 5 4 4 4 3 3 3 2 3
8 7 6 3 4 5 6 6 4 6 8 7 9 11 12 13 13 14 12 11 11 10 9 9 10 9 7 7 6 6 5 4 4 4 5 5 5 6 5 6 6 6 6 5 4 5 4 5 5 5 6 6 6 5 5 5 4 4 3 3 3 3 2
9 8 5 3 2 2 5 7 7 6 7 9 10 11 11 12 12 12 12 13 13 11 11 11 11 10 9 8 8 7 6 6 5 4 5 5 6 5 5 5 5 4 5 6 6 5 4 4 5 5 5 5 5 5 4 5 4 4 4 3 4 3 3
7 6 6 6 7 6 5 6 7 6 6 5 6 7 9 10 10 8 6 8 11 13 14 14 11 10 9 9 8 7 8 7 5 4 4 4 4 4 5 6 5 5 6 5 4 5 4 4 5 5 5 5 5 4 5 4 4 4 4 3 3 3 4
7 6 6 6 5 5 5 4 5 6 7 6 6 6 7 9 8 9 8 8 8 6 5 4 6 8 9 9 8 8 7 6 6 5 5 4 5 6 6 6 6 6 5 6 4 5 4 4 5 5 5 5 5 5 4 4 4 4 4 4 4 3 3
6 5 5 6 5 5 6 6 5 4 4 4 4 4 3 5 10 8 6 7 7 9 9 9 8 6 6 7 8 8 9 9 8 8 6 5 5 6 6 5 5 5 6 4 5 4 4 5 5 5 6 5 5 5 5 5 5 4 4 4 4 4 3
5 5 5 7 6 6 5 5 5 6 4 3 4 6 6 5 4 5 5 2 4 7 8 9 9 9 9 8 8 9 9 9 7 7 6 6 5 5 6 5 5 5 3 5 5 5 6 6 5 5 6 6 6 6 6 5 5 5 4 5 4 4 3
6 3 7 8 7 6 6 6 6 6 6 4 5 5 7 8 8 8 8 5 2 1 4 4 7 7 7 6 6 7 7 7 7 6 7 7 6 6 6 6 5 4 5 5 5 4 5 6 6 6 6 6 6 6 6 6 6 5 5 5 5 6 5
7 7 7 7 7 6 6 7 7 8 8 7 5 5 5 6 6 7 8 9 9 8 6 4 2 2 3 4 3 3 3 4 4 5 6 7 7 7 6 6 5 5 6 6 5 6 5 5 6 5 6 7 6 6 6 6 6 5 5 6 6 6 6
6 8 9 7 7 7 8 9 10 9 8 6 6 4 4 3 3 7 8 6 3 4 5 4 4 5 5 5 5 5 5 3 3 6 8 8 7 8 7 6 6 5 6 6 6 6 5 5 4 5 5 7 7 7 6 7 6 6 6 5 5 6 6
6 8 7 7 7 9 9 6 5 8 6 3 2 3 4 5 7 8 6 5 5 5 3 4 5 7 7 7 8 7 7 7 8 9 9 9 8 8 7 7 6 6 5 6 8 7 6 7 6 6 7 7 7 7 7 7 7 7 7 7 6 6 6
7 7 7 8 7 7 6 8 8 8 7 5 2 2 4 5 7 6 6 6 7 6 5 5 2 4 2 4 5 4 4 6 7 6 4 3 4 5 6 6 7 7 7 7 8 8 8 8 8 7 7 8 7 8 8 7 7 7 7 6 6 7 7
9 9 8 8 8 8 8 9 9 10 8 5 5 4 4 4 6 6 6 6 7 6 5 5 5 7 5 4 4 5 6 7 6 3 1 0 1 1 3 5 6 6 7 6 8 9 9 9 9 9 8 8 8 9 8 7 7 7 7 7 7 7 7
9 8 8 10 9 8 8 10 9 10 9 6 7 7 6 7 7 7 7 6 6 3 1 2 2 4 5 5 3 2 3 5 4 3 2 1 1 2 3 2 3 6 6 6 7 8 9 9 9 9 8 8 8 8 7 7 8 7 7 8 7 7 7
10 8 8 9 9 8 8 9 9 9 9 8 7 6 7 8 9 9 7 6 5 5 5 0 5 5 5 3 1 2 3 3 2 2 1 2 3 2 2 4 3 5 3 5 7 8 8 8 8 8 8 8 8 7 6 7 7 9 13 11 8 8 8
10 9 8 9 8 7 8 7 9 9 10 9 8 8 8 7 7 8 9 8 8 8 7 7 6 5 5 3 1 6 7 3 0 1 1 2 3 2 2 4 4 3 7 7 4 5 6 7 8 9 9 9 9 9 8 8 8 14 14 15 15 10 7
9 8 8 8 8 8 8 8 9 10 9 8 9 9 8 8 8 9 8 8 8 6 7 8 8 7 6 5 4 5 4 3 3 3 2 2 2 1 1 2 1 1 3 11 11 5 3 5 6 7 7 8 9 9 9 9 12 15 14 15 16 14 10
9 8 8 8 9 8 7 8 8 8 9 8 8 8 8 7 8 8 6 7 6 5 7 7 6 7 7 7 7 6 6 6 7 7 6 6 6 5 3 3 2 2 4 8 11 8 3 3 3 3 4 5 6 8 8 8 12 15 15 15 15 16 13
9 8 8 8 8 8 7 6 6 7 7 8 8 7 7 7 7 6 6 6 6 8 6 6 7 7 7 7 6 5 5 6 7 7 6 5 6 6 5 5 4 3 3 4 4 6 5 2 2 2 2 3 4 4 4 5 7 11 14 15 16 16 12
10 9 8 7 7 7 6 6 6 7 7 7 6 5 6 7 5 5 6 6 8 7 7 7 8 8 7 8 7 7 6 5 6 7 6 6 5 5 4 2 1 1 5 4 3 3 6 7 3 1 1 2 2 3 3 3 3 5 9 12 14 14 11
10 9 8 6 8 6 6 6 7 7 6 4 6 6 5 4 3 6 5 5 6 6 7 7 8 8 8 9 8 9 8 8 7 6 6 5 4 3 2 0 0 2 3 4 5 4 4 6 4 2 2 2 2 3 4 4 7 6 7 9 11 11 6
9 9 9 7 8 7 5 6 7 6 7 7 7 6 4 3 4 5 6 7 6 6 6 7 8 7 6 6 7 7 7 7 7 6 5 4 3 2 2 2 1 1 1 4 4 4 5 5 4 2 2 2 1 2 3 3 6 8 9 9 7 2 4
8 7 8 10 9 8 7 6 7 8 9 9 8 6 4 5 6 7 8 8 8 8 8 8 8 6 6 5 5 5 5 6 6 6 6 6 6 4 4 3 2 2 1 3 4 5 4 4 3 2 1 2 3 2 3 3 5 8 9 9 8 5 4
10 10 9 8 10 10 8 7 8 8 9 10 9 6 5 5 7 8 8 7 7 8 9 8 7 7 6 5 3 3 3 4 4 5 5 6 6 5 5 5 4 3 3 4 4 4 4 4 4 3 3 3 3 6 5 3 5 7 7 8 7 3 3
11 11 10 9 7 8 7 6 10 11 10 9 6 5 6 7 8 8 7 6 7 9 8 7 6 4 4 5 4 3 3 3 4 4 5 6 6 6 5 4 4 3 2 2 2 3 4 5 5 6 6 6 6 6 7 5 5 7 9 6 5 2 2
9 10 10 10 9 8 9 9 9 8 7 5 5 6 6 6 8 7 5 5 8 7 5 4 4 5 5 5 6 6 6 5 4 4 5 4 5 5 5 6 6 5 3 3 3 4 5 6 5 5 5 6 6 6 6 7 7 7 11 10 8 5 1
10 9 8 8 9 9 9 9 9 8 7 6 6 6 5 6 6 4 4 5 6 4 3 3 4 4 5 5 5 6 6 5 5 3 3 4 4 5 6 6 6 6 6 5 6 6 6 5 5 5 5 5 6 6 5 7 11 8 11 13 11 9 2
11 10 10 9 8 7 9 8 8 7 5 4 5 5 5 6 5 4 4 5 3 3 3 3 4 4 4 4 5 5 5 5 5 4 3 3 3 3 4 5 6 7 7 7 7 7 7 7 6 6 6 5 5 5 5 5 6 8 7 9 11 10 10
8 8 8 7 8 8 9 8 6 6 5 5 5 5 5 5 4 4 4 5 4 3 3 4 4 4 4 4 4 4 5 5 5 4 3 2 2 3 4 5 4 5 6 5 6 5 6 6 6 6 7 7 6 6 6 6 5 6 7 6 8 6 8
9 9 9 9 8 7 7 8 7 6 5 4 5 4 4 4 5 4 5 5 5 5 5 4 4 4 4 5 4 4 4 5 5 5 4 3 2 3 3 3 4 6 5 5 6 6 6 5 5 6 6 6 7 7 6 6 6 6 7 9 10 8 8
7 7 8 8 7 7 7 7 6 6 6 5 4 4 3 3 3 4 3 3 4 5 4 4 4 4 4 4 4 5 4 4 5 5 5 4 1 2 2 2 3 3 3 5 5 4 5 5 5 6 6 6 6 6 6 6 6 6 6 7 10 9 10
8 8 9 9 7 7 6 6 6 6 6 5 2 2 2 3 3 3 3 4 4 3 3 4 3 3 3 4 4 4 4 5 5 4 5 4 4 1 1 1 3 3 3 4 5 4 4 4 4 5 6 6 7 6 6 6 6 6 6 7 8 8 9
8 6 5 7 6 7 6 6 6 6 5 4 2 2 3 4 5 5 5 5 4 3 3 4 3 3 4 5 4 4 4 4 8 7 6 6 3 3 4 1 2 3 3 4 3 4 4 4 5 5 5 6 6 7 7 7 6 7 9 10 8 8 7
8 9 8 7 5 6 7 6 7 6 5 3 3 4 5 5 5 5 6 5 5 5 5 4 4 4 4 4 4 5 4 4 3 4 5 5 6 3 3 1 4 4 3 2 2 2 2 2 3 2 3 3 5 6 7 7 8 8 10 10 8 6 6
8 8 6 5 5 6 6 7 7 6 5 3 3 4 5 5 5 4 5 5 5 5 6 5 4 5 6 5 5 5 5 5 5 5 5 5 5 5 5 3 5 4 2 3 4 4 1 1 1 2 1 3 3 2 4 6 7 12 13 11 11 10 6
9 7 7 5 7 7 8 7 7 6 5 3 4 5 4 4 4 4 4 4 4 5 5 5 5 5 6 6 5 6 5 5 5 5 5 5 3 2 2 3 7 8 3 3 4 1 2 4 4 3 3 0 4 4 4 6 8 9 8 9 8 8 9
9 9 8 5 8 9 8 7 6 6 5 4 5 5 5 4 4 4 3 4 4 4 4 5 5 5 5 5 5 6 6 4 4 4 5 4 3 1 1 1 3 5 10 11 7 8 8 7 7 7 7 5 4 2 4 4 8 9 9 8 9 9 9
Wind_Direction
154 148 193 133 126 156 181 187 181 176 178 178 179 178 175 176 177 173 176 180 185 181 184 181 186 182 183 186 189 192 191 175 172 182 186 191 191 187 189 192 189 195 192 194 201 194 202 192 190 195 197 207 208 211 212 213 214 207 205 208 194 202 215
171 166 166 353 104 111 118 174 183 184 183 181 179 179 179 179 176 178 181 182 183 183 182 184 183 186 187 189 185 190 193 190 179 185 192 197 199 199 195 190 189 193 196 205 198 205 189 199 188 191 197 203 210 210 209 209 211 208 202 195 188 204 199
171 172 168 180 141 144 135 111 119 167 181 188 186 182 183 182 182 184 181 179 183 183 179 183 186 184 184 184 185 198 196 190 192 188 192 197 200 201 200 194 194 192 201 201 197 200 198 198 203 196 196 204 210 207 208 206 210 206 202 181 176 185 191
168 166 171 162 151 173 144 131 136 148 170 182 185 187 189 189 189 186 181 180 180 178 183 188 184 183 184 184 190 193 198 202 202 200 201 198 195 196 194 203 202 197 196 207 204 200 201 194 205 210 209 207 215 210 202 206 203 198 199 182 183 189 198
141 134 132 153 176 180 162 140 140 144 148 145 160 185 193 193 186 180 187 189 183 185 189 186 185 185 186 185 189 191 196 195 201 204 207 208 196 183 194 202 201 202 208 205 205 205 211 199 207 211 220 214 220 213 210 208 206 197 196 188 197 195 206
143 138 149 164 186 173 159 145 144 133 130 131 144 156 174 181 180 183 176 175 191 193 180 180 195 187 187 191 190 193 190 193 190 195 199 204 194 192 199 203 197 206 209 213 200 211 212 210 211 210 214 218 221 219 215 208 211 197 197 192 202 204 214
112 122 126 138 159 164 164 163 149 131 120 132 116 93 96 159 177 177 166 174 175 171 175 184 188 192 203 194 199 193 196 195 188 193 191 195 201 200 202 203 201 203 211 200 214 207 212 218 223 218 213 213 214 216 214 210 210 203 194 195 205 211 211
109 120 126 131 130 129 136 135 118 110 112 114 107 104 90 63 79 133 149 161 181 176 182 182 185 191 192 196 199 201 202 203 196 191 184 194 199 204 206 205 205 204 201 211 220 203 213 214 221 221 219 214 213 214 215 213 210 204 192 201 209 216 202
113 122 136 130 123 120 113 100 97 109 110 110 96 97 96 92 103 108 118 125 97 231 216 195 200 199 192 192 197 208 207 204 205 197 193 196 198 206 205 207 207 197 202 216 224 217 215 214 211 212 214 216 213 211 213 212 213 208 200 207 209 212 214
124 116 79 82 109 103 90 89 90 89 93 93 98 112 118 128 148 147 147 160 168 165 142 116 96 120 133 130 147 178 200 217 218 215 217 213 212 208 209 204 203 199 208 215 220 222 226 221 214 207 208 214 216 213 214 214 216 213 209 211 210 215 219
80 93 98 92 86 102 104 96 95 99 108 126 136 124 101 102 92 58 49 41 57 68 88 107 117 115 115 144 176 179 165 169 193 214 218 223 220 221 216 212 205 200 210 212 221 225 223 227 218 215 212 215 216 217 219 219 216 217 219 219 216 218 222
106 97 93 93 90 86 83 92 115 122 125 117 97 121 117 105 98 103 121 147 133 110 156 162 147 137 154 179 185 189 186 180 189 202 212 216 218 221 220 215 213 210 212 211 222 225 219 218 217 211 216 220 220 216 217 216 214 216 219 217 217 220 225
100 98 96 85 80 85 91 85 89 87 94 93 73 0 47 73 83 106 135 140 127 151 202 215 120 84 157 206 192 183 207 218 211 195 182 193 227 232 220 219 217 215 218 213 221 222 222 222 220 221 218 220 216 219 217 215 214 215 218 220 219 220 223
100 96 97 95 84 80 82 86 87 96 107 123 115 95 67 74 98 120 121 121 134 159 189 194 155 152 175 218 211 197 206 232 238 230 214 129 23 335 264 234 219 220 220 215 221 223 224 222 220 223 219 221 218 221 217 216 219 220 219 220 220 222 229
88 87 90 88 86 82 81 81 85 92 101 100 89 87 88 86 88 90 91 89 105 103 56 7 78 140 195 227 246 253 233 224 239 251 266 223 252 292 305 307 258 225 217 220 220 224 225 224 223 224 223 224 221 222 217 216 221 219 216 217 221 218 227
93 85 84 87 87 79 75 78 76 80 84 77 74 73 78 82 80 79 74 68 53 43 16 327 145 154 162 184 283 331 294 246 246 255 263 248 254 257 296 313 334 318 267 213 218 221 221 220 221 221 222 224 226 223 217 220 222 224 221 216 215 214 221
110 104 94 87 79 74 79 74 77 74 74 75 70 67 67 66 74 76 73 63 41 28 26 38 55 58 66 84 128 219 216 219 228 46 11 329 318 322 306 280 273 302 311 293 241 221 217 216 214 216 218 219 220 218 216 221 225 225 219 219 222 219 217
111 110 108 102 91 82 77 74 77 75 73 73 72 65 60 61 62 63 60 62 60 33 29 37 48 50 49 30 47 37 60 86 119 111 82 53 351 299 347 322 325 240 255 294 292 260 244 208 211 215 218 219 220 220 219 220 225 224 222 220 222 221 222
114 111 109 105 98 91 78 75 75 77 79 78 72 71 63 63 64 60 57 63 68 66 46 52 43 44 41 42 32 25 37 49 60 63 62 66 49 52 88 55 39 358 291 259 274 295 280 274 272 249 239 225 224 228 224 226 226 222 221 222 222 222 222
114 110 105 96 97 94 87 73 69 69 73 77 74 70 73 65 70 72 73 72 59 60 58 59 50 51 50 50 29 34 40 40 45 54 49 46 65 67 52 36 29 349 275 271 291 302 302 277 270 279 267 255 244 245 254 254 255 230 224 223 223 224 213
122 119 111 108 97 84 83 89 88 84 72 66 65 63 70 66 64 73 65 64 67 56 55 50 50 45 41 39 28 24 23 32 35 37 33 33 41 55 63 62 92 314 303 295 294 309 310 302 293 279 271 285 284 287 277 253 261 259 244 241 239 237 219
129 123 117 111 103 101 96 90 94 90 82 67 65 56 56 59 65 76 68 63 64 61 58 56 51 46 40 37 28 19 18 22 27 31 33 25 23 27 40 307 342 301 291 306 320 320 307 284 282 282 300 286 288 298 303 307 321 305 275 254 245 241 230
126 121 119 109 103 97 91 93 91 92 81 64 54 50 36 20 45 60 52 46 41 46 43 48 52 46 42 43 35 25 14 17 22 22 25 14 18 17 339 309 264 234 263 294 303 294 275 274 274 292 302 308 310 280 282 293 289 287 281 272 270 236 221
99 98 101 107 103 95 84 81 80 71 79 74 56 37 28 38 52 53 48 42 37 40 34 29 24 20 30 32 26 25 19 18 21 17 11 10 9 352 332 315 292 278 245 266 276 267 268 275 298 327 323 317 315 287 283 280 267 261 265 264 256 222 227
110 108 105 103 105 101 92 81 80 78 69 64 55 29 39 53 60 57 49 40 37 42 38 27 16 7 358 356 355 12 18 21 24 19 12 8 356 346 337 333 323 319 278 266 269 286 301 341 3 4 8 353 344 340 357 345 357 3 331 315 323 315 307
119 111 104 99 87 93 90 82 74 62 59 59 49 41 47 50 55 54 48 34 38 38 27 15 1 347 346 353 352 359 6 14 26 24 18 1 351 349 342 331 333 324 277 266 296 343 4 17 26 31 31 28 27 34 21 12 13 24 24 11 348 329 295
107 111 111 105 104 97 84 77 80 78 71 62 54 55 51 55 59 50 43 39 39 27 6 350 350 0 7 13 16 6 357 352 12 25 13 359 352 342 353 357 348 339 350 9 13 28 26 26 28 32 28 26 26 39 26 8 9 7 25 26 17 5 13
104 94 90 100 104 97 92 87 82 75 61 48 56 56 57 65 67 56 48 46 35 355 328 348 2 5 11 19 14 9 1 353 339 36 21 355 6 6 7 357 2 11 13 24 29 27 22 16 17 22 21 18 19 24 35 27 17 10 17 12 19 28 47
111 111 110 102 90 92 99 93 87 83 82 62 56 53 49 58 54 47 42 38 359 314 332 355 9 10 15 21 19 7 0 351 347 348 23 2 12 19 19 5 16 17 19 21 21 21 17 10 6 10 7 12 11 11 13 21 24 22 2 13 9 34 56
106 104 98 95 104 105 95 92 85 77 62 57 50 38 35 47 39 30 28 3 325 329 353 12 5 12 18 18 11 6 359 350 344 341 5 5 27 31 35 20 18 29 25 21 26 21 16 6 3 4 6 2 358 4 5 7 4 8 0 357 6 42 60
122 119 115 114 113 110 105 111 110 99 74 57 57 55 49 46 52 33 14 335 342 343 342 350 8 7 12 5 1 1 353 344 347 344 352 338 44 47 44 31 27 30 14 24 20 18 16 6 9 14 1 1 0 354 356 357 355 353 349 358 6 14 25
112 115 116 114 111 111 116 112 106 102 93 58 54 62 71 69 66 49 329 314 350 352 346 337 354 1 356 353 351 348 347 354 344 346 352 334 12 69 58 70 47 44 22 27 24 23 17 5 11 13 9 6 1 354 346 348 345 340 346 1 357 351 348
131 131 128 123 132 122 110 108 108 102 93 86 56 74 66 63 56 42 352 358 344 349 355 349 333 331 342 340 338 338 346 351 336 349 346 343 335 350 78 71 68 35 24 23 25 17 17 18 19 15 7 1 349 347 345 346 340 337 345 357 353 346 339
132 121 127 132 132 122 117 112 107 96 93 78 43 57 59 45 33 17 12 2 0 350 6 16 351 336 323 330 334 335 333 339 342 349 339 331 324 321 341 2 59 47 33 15 20 31 12 13 8 13 8 354 344 342 347 348 346 347 351 343 346 337 335
138 136 142 133 136 125 126 114 102 105 93 69 22 39 47 46 33 22 19 12 7 8 28 14 360 5 358 344 343 334 331 332 326 326 330 324 323 293 252 283 23 35 359 333 114 89 92 26 349 10 344 341 342 347 345 346 347 341 340 335 340 343 331
141 142 140 139 121 108 105 111 118 109 98 74 49 53 60 55 42 26 21 18 16 20 30 11 9 18 6 354 347 332 326 325 324 324 326 330 323 327 329 28 80 111 42 326 62 113 183 230 355 313 288 342 309 316 330 325 315 322 338 343 349 351 350
147 149 153 143 108 107 119 130 128 121 108 94 75 72 69 61 41 35 25 23 20 30 30 21 18 12 2 356 343 333 327 319 316 315 318 315 333 338 347 340 335 347 47 166 284 286 228 227 242 265 252 169 352 332 303 293 326 350 1 10 14 6 356
161 157 156 143 135 139 136 135 127 125 126 121 99 90 82 66 42 30 23 24 19 19 31 29 27 10 350 339 329 338 342 338 327 322 317 320 339 343 358 358 348 333 327 336 351 346 347 348 352 342 336 352 77 339 330 21 26 359 18 22 20 11 1